CAPE
896 1108 1139 1313 1549 1592 1010 1784 1419 1431 1012 1044 747 819 1040 1252 1173 1135 1056 1321 1279 1496 1375 1263 1387 1542 1805 2320 2096 2006 2112 2098 2307 1962 1799 1568 1885 1803 1658 1425 1437 1472 1598
1352 1223 1696 1560 2276 1993 1668 1402 1595 1505 1391 822 786 992 966 1145 1422 1207 1279 1543 1396 1276 1637 1817 2111 2087 2264 2315 2096 2072 1930 1867 1824 1631 1790 1633 1578 1353 1248 1152 1181 1124 1212
1982 2212 1352 1078 861 1308 2107 1710 1619 1479 1606 1321 1210 1155 1206 1415 1621 1708 1731 1486 1715 1395 1528 1736 2515 2540 2971 2290 2071 2199 2309 2348 2029 1984 1978 1812 1643 1489 1320 1292 1177 1153 1068
2037 1909 1034 823 1296 1884 1785 1822 1186 1820 1511 1569 1249 1283 1317 1579 1582 1796 2011 1687 1368 1405 1662 2395 2860 2725 2505 2184 2221 2607 2493 2429 2557 2517 2460 1735 1613 1575 1491 1461 1389 1234 1077
1758 1824 1022 770 1470 1378 1805 1596 1704 1961 1570 1717 1614 1281 1121 1236 1614 1393 1927 2026 1806 1418 1488 2394 2635 2582 1712 1621 2268 2499 2674 2618 2533 2477 2290 2228 1928 1624 1551 1469 1468 1477 1355
1504 1724 1075 1112 1491 1138 1743 1868 2160 1682 1921 1684 1213 1412 1787 1700 1765 1564 1711 1944 1934 1870 1676 1703 1867 1295 2366 2210 2320 2508 2629 2887 2742 2699 2416 2337 2286 2084 2004 1816 1706 1498 1427
1294 1868 996 683 1399 1340 1582 1957 1869 1639 1467 1834 1638 1464 1434 1807 1692 1731 1375 1397 1669 1836 1862 2105 2195 2036 1797 2206 2274 2447 2629 2921 2864 2865 2822 2522 2470 2282 2153 2043 2067 1710 1384
1695 1720 1593 1184 796 792 1902 2449 2072 1316 1408 1574 1766 1625 1363 1267 1166 1237 1159 1082 1258 1320 1731 1885 2248 2470 2464 2461 2477 2209 2532 2666 2711 2790 2996 2870 2609 2473 2261 2083 2052 2016 1831
1751 1911 1926 1906 881 1514 986 2098 2044 1944 1026 1029 2120 1884 1523 1756 1226 1125 1213 1268 1387 1494 1645 1940 2203 2379 2631 2401 2390 2380 2650 2345 2676 2500 2694 2996 2749 2564 2452 2261 2062 2013 1929
1983 1697 1987 1966 1540 767 1221 1737 1696 1614 2236 936 1201 1392 2188 2009 1754 1579 1185 1295 1553 1483 1531 1747 1593 2340 2430 2564 2495 1928 2225 1761 2055 2348 2556 3107 3151 2886 2645 2564 2303 2072 1879
2353 1928 1858 1939 1859 1614 820 1578 1959 2334 1783 1323 911 934 1826 1695 1739 1424 941 1284 1166 1397 1663 1781 1497 1644 2282 2520 2277 2334 1643 1464 1579 2039 2504 2820 3020 3301 2774 2765 2818 2510 2040
1417 2277 1935 2146 2058 1766 1618 1444 1610 2249 1848 1485 1112 1140 928 1379 1175 938 911 958 1037 994 1159 1791 1561 1603 1864 2360 2323 2383 1890 1376 1082 1155 1330 1908 2536 2710 2711 2555 2602 2622 2269
1303 1620 2250 2298 2088 2061 2334 2884 2763 2196 2293 1687 1811 947 611 555 794 1191 1250 811 954 1784 829 1045 1549 2000 1988 2110 2215 1534 1684 1196 1013 884 856 862 1212 1817 2468 2486 2720 2884 2534
2052 2047 1775 2703 2064 2235 2065 1713 3091 2328 1372 1515 1763 1701 833 467 243 842 1260 1209 1044 567 537 877 1125 1208 1817 2245 2236 1844 1902 1408 1207 652 372 379 619 771 1149 1629 1934 2069 2234
1988 2039 2328 2242 1587 1547 2359 2603 2594 1759 2493 3140 1915 1788 1669 657 464 491 990 1327 1267 920 106 1352 447 1535 1553 2038 1532 1867 2003 603 445 173 111 145 163 204 306 556 734 774 978
2416 2494 2081 2124 1855 1863 1908 2784 1966 2092 2637 1527 1462 1589 1709 1030 647 694 682 916 1104 1076 621 148 813 1298 1714 1733 1659 1938 1769 1084 366 39 40 0 13 45 51 87 152 217 262
2562 2533 2621 2569 2303 1904 2127 3037 2675 2543 2760 2280 1922 2243 2320 2326 1159 982 722 931 711 771 636 474 602 1125 2592 2462 1924 1911 1855 1602 1150 851 385 68 11 0 0 0 0 0 0
2498 2520 2562 2704 2519 2216 2498 2455 1923 1949 2346 2172 1770 2365 1851 1531 1815 2020 1144 1873 1372 1563 1218 1568 1592 1057 2254 2095 2325 2348 1878 987 910 734 243 38 0 0 0 0 0 0 0
2623 2477 2485 2643 2740 2488 2308 2519 2546 2282 2315 2223 2129 1687 1050 1780 2026 1353 1434 1347 1465 1662 1456 1338 1148 1331 1587 1770 1992 2581 2425 2233 2007 645 329 206 12 12 0 0 0 0 0
2855 2847 2883 2823 2697 2745 2524 2515 2773 2328 2128 1972 1858 1811 1467 1322 1738 2207 1779 2126 2140 2075 1959 1565 1361 1455 1406 2383 2043 1808 1774 2045 1773 1685 736 722 314 77 0 0 0 0 0
442 1148 2021 2456 3325 2752 2728 2732 2509 2443 2327 2201 2059 2046 1702 1325 801 1618 2218 2166 2568 1972 1763 1603 1387 1096 1457 1486 2213 1657 1715 1472 1884 1812 1634 1733 1750 1252 603 0 0 0 0
281 351 873 1733 2343 2644 2441 1509 1639 2372 2755 2458 2353 2213 1953 1101 856 795 820 993 1731 2212 2291 1265 1202 2470 2429 2376 3288 2756 2713 3386 2538 1390 1915 1793 1380 1178 584 67 0 0 0
212 287 388 640 1674 2426 2359 1163 589 2122 2095 2338 2460 2239 2067 1814 1568 1950 462 339 241 547 636 1959 1952 2943 2945 2902 3178 2605 2511 2733 3139 1851 2015 1299 1285 1035 471 20 0 0 0
640 724 721 625 1370 1862 1904 1709 300 1874 2349 2609 2931 2474 2182 2301 2083 1839 2191 1894 1459 1542 1316 1246 1515 1748 1999 1984 2195 2380 2968 2745 2816 1890 1707 1203 954 633 203 0 0 0 0
705 686 746 1387 1800 2434 1933 956 282 1845 2086 2907 2701 2616 2844 2715 2018 979 2217 1913 1894 2413 1218 1230 1186 1042 802 794 1302 2453 2156 2456 1463 1257 1322 1140 844 368 87 0 0 0 0
759 557 669 1205 1186 1842 2207 952 56 2006 1962 2071 2924 2816 1650 1662 1578 700 1959 1899 1819 1778 1742 1981 1869 1086 601 1152 197 1460 2096 1900 1469 1132 1511 1015 583 160 0 0 1 13 2
CIN
-0 -0 -0 -15 -6 -10 -15 -5 -1 -0 -0 -0 -0 -0 -0 -0 -0 -0 -0 -73 -53 -21 -23 -24 -16 -9 -1 -0 -0 -0 -0 -0 -0 -0 -3 -6 -1 -0 -0 -1 -2 -2 -3
-0 -0 -0 -0 -15 -15 -5 -1 -0 -0 -0 -0 -0 -0 -0 -0 -0 -1 -0 -8 -63 -56 -23 -12 -0 -0 -0 -0 -0 -0 -0 -1 -1 -2 -1 -3 -3 -2 -2 -2 -2 -2 -2
-0 -0 -0 -0 -0 -0 -8 -14 -0 -3 -0 -0 -0 -0 -0 -0 -0 -0 -0 -0 -9 -65 -45 -28 -2 -1 -0 -0 -0 -0 -0 -0 -0 -0 -0 -1 -1 -1 -1 -1 -1 -0 -0
-0 -0 -0 -0 -0 -0 -0 -0 -47 -0 -1 -0 -0 -0 -0 -0 -0 -0 -0 -0 -0 -0 -59 -11 -2 -1 -0 -0 -0 -0 -0 -0 -0 -0 -0 -0 -1 -0 -0 -0 -0 -0 -0
-0 -0 -0 -0 -0 -0 -0 -0 -0 -0 -1 -0 -0 -0 -0 -0 -0 -0 -0 -0 -0 -1 -0 -46 -12 -1 -11 -8 -0 -0 -0 -0 -0 -0 -0 -0 -0 -0 -0 -0 -0 -0 -0
-0 -0 -0 -1 -0 -0 -0 -0 -5 -17 -8 -0 -0 -0 -0 -0 -0 -0 -0 -0 -0 -0 -0 -0 -10 -28 -16 -4 -0 -0 -0 -0 -0 -0 -0 -0 -0 -0 -0 -0 -0 -0 -0
-0 -0 -0 -0 -0 -0 -0 -1 -0 -0 -0 -1 -0 -0 -0 -0 -0 -0 -0 -0 -0 -0 -0 -0 -0 -0 -20 -51 -24 -8 -0 -0 -0 -0 -0 -0 -0 -0 -0 -0 -0 -0 -0
-0 -0 -0 -0 -0 -0 -0 -0 -1 -0 -0 -0 -0 -0 -0 -0 -0 -0 -0 -0 -0 -0 -0 -0 -0 -0 -0 -0 -2 -65 -21 -4 -0 -0 -0 -0 -0 -0 -0 -0 -0 -0 -0
-0 -0 -0 -0 -0 -0 -0 -0 -0 -0 -0 -0 -5 -0 -3 -8 -0 -0 -5 -0 -2 -0 -0 -0 -0 -0 -0 -0 -23 -25 -54 -51 -18 -11 -3 -0 -1 -0 -0 -0 -0 -0 -0
-0 -0 -0 -0 -1 -0 -0 -0 -0 -2 -0 -0 -0 -0 -2 -1 -0 -1 -0 -0 -0 -0 -0 -0 -0 -3 -0 -0 -5 -77 -96 -111 -70 -36 -14 -0 -0 -0 -0 -0 -0 -0 -0
-0 -0 -0 -0 -0 -0 -0 -0 -0 -0 -0 -0 -0 -0 -0 -0 -1 -0 -21 -0 -0 -0 -0 -1 -0 -0 -1 -2 -0 -14 -143 -151 -139 -84 -37 -14 -1 -0 -0 -0 -0 -0 -0
-0 -0 -0 -0 -0 -0 -0 -0 -0 -0 -0 -0 -0 -0 -0 -2 -2 -0 -0 -0 -1 -0 -0 -0 -0 -0 -0 -0 -10 -111 -146 -174 -194 -173 -135 -71 -24 -7 -0 -6 -1 -0 -0
-0 -0 -0 -0 -0 -0 -1 -1 -0 -0 -0 -0 -0 -0 -0 -0 -0 -0 -0 -0 -0 -2 -0 -0 -0 -0 -0 -0 -1 -107 -153 -199 -192 -190 -187 -179 -135 -74 -18 -13 -2 -0 -0
-3 -1 -0 -0 -0 -1 -0 -0 -1 -4 -0 -0 -0 -0 -0 -0 -0 -0 -0 -0 -0 -0 -0 -3 -1 -0 -0 -0 -82 -103 -22 -127 -153 -193 -230 -233 -187 -157 -115 -64 -36 -17 -7
-0 -0 -0 -2 -0 -3 -0 -0 -0 -0 -1 -0 -0 -0 -0 -0 -0 -0 -0 -0 -0 -0 -4 -4 -0 -1 -0 -1 -84 -2 -0 -201 -184 -277 -299 -301 -306 -293 -247 -174 -133 -111 -83
-0 -6 -6 -0 -1 -0 -1 -0 -0 -0 -0 -0 -0 -0 -0 -0 -0 -0 -0 -0 -0 -0 -0 -0 -0 -1 -0 -0 -35 -5 -1 -73 -119 -91 -342 -0 -218 -366 -363 -323 -270 -229 -206
-0 -2 -3 -12 -9 -1 -0 -0 -0 -0 -0 -0 -0 -0 -0 -0 -0 -0 -0 -0 -0 -0 -0 -0 -0 -0 -1 -0 -0 -0 -0 -0 -10 -143 -233 -364 -296 -0 -0 -0 -0 -0 -0
-6 -2 -0 -0 -0 -2 -0 -0 -0 -0 -0 -0 -0 -0 -2 -0 -0 -1 -0 -0 -0 -0 -0 -0 -0 -0 -1 -0 -0 -0 -0 -0 -0 -158 -306 -329 -0 -0 -0 -0 -0 -0 -0
-5 -10 -4 -1 -0 -0 -0 -0 -0 -0 -0 -0 -0 -6 -44 -3 -0 -0 -0 -0 -0 -0 -0 -0 -0 -0 -0 -0 -0 -0 -0 -0 -0 -161 -188 -238 -284 -396 -0 -0 -0 -0 -0
-0 -2 -2 -0 -0 -0 -0 -0 -0 -0 -0 -0 -3 -3 -6 -3 -0 -0 -0 -0 -0 -0 -0 -0 -0 -0 -0 -0 -0 -0 -0 -0 -0 -0 -24 -45 -178 -324 -0 -0 -0 -0 -0
-132 -50 -19 -3 -0 -0 -0 -0 -0 -0 -0 -0 -0 -0 -0 -11 -37 -2 -0 -0 -0 -0 -0 -0 -0 -0 -0 -0 -0 -0 -0 -0 -0 -0 -0 -0 -0 -2 -61 -0 -0 -0 -0
-184 -164 -120 -22 -6 -1 -1 -26 -16 -0 -0 -0 -0 -0 -0 -20 -35 -70 -60 -24 -5 -0 -0 -0 -0 -0 -0 -0 -3 -1 -1 -0 -2 -0 -0 -0 -0 -0 -26 -105 -0 -0 -0
-157 -184 -177 -129 -28 -21 -31 -93 -152 -1 -0 -0 -0 -0 -0 -0 -15 -0 -171 -129 -123 -54 -50 -2 -0 -0 -0 -0 -0 -0 -0 -0 -0 -1 -1 -0 -0 -0 -17 -118 -0 -0 -0
-51 -65 -100 -133 -59 -40 -68 -94 -263 -1 -0 -0 -0 -0 -0 -0 -0 -1 -0 -0 -0 -0 -11 -6 -1 -5 -0 -0 -0 -0 -0 -0 -0 -0 -1 -26 -19 -46 -116 -0 -0 -0 -0
-27 -38 -64 -31 -17 -4 -46 -173 -287 -4 -0 -0 -0 -0 -0 -0 -2 -23 -0 -0 -0 -0 -15 -14 -20 -18 -67 -89 -28 -0 -0 -0 -0 -0 -9 -11 -17 -68 -161 -0 -0 -0 -0
-3 -30 -23 -19 -36 -8 -10 -183 -460 -5 -0 -0 -0 -0 -5 -6 -1 -81 -1 -0 -0 -0 -0 -1 -1 -39 -145 -28 -199 -11 -0 -0 -0 -0 -0 -17 -48 -75 -0 -0 -0 -0 -12
Wind_Speed
2 3 2 2 4 4 4 4 4 4 4 5 6 6 6 6 5 5 3 15 13 14 15 15 15 14 14 14 13 13 13 13 13 14 15 13 13 12 11 11 11 11 12
2 2 4 3 6 3 3 4 3 1 2 3 3 5 6 7 6 6 5 9 13 14 14 14 14 14 15 14 13 12 12 12 12 12 13 12 11 9 9 10 10 11 11
5 4 3 4 3 1 4 3 3 1 4 3 4 4 5 5 6 7 7 7 11 14 15 14 15 13 13 14 13 13 12 12 13 13 12 10 10 9 9 9 10 10 10
5 4 4 2 4 3 3 4 3 2 4 3 2 4 4 5 5 6 7 6 6 8 13 15 14 13 13 14 14 13 12 12 13 13 12 11 10 10 9 9 9 9 9
6 6 5 2 3 4 2 3 4 1 2 2 4 4 5 4 7 7 5 7 6 6 5 17 13 12 14 15 14 13 13 13 12 12 12 11 11 11 10 10 10 10 10
7 5 5 4 5 4 3 2 1 4 3 3 4 2 3 6 5 5 7 7 6 7 6 6 10 11 16 15 15 14 14 14 13 13 12 12 11 11 11 10 10 11 11
7 6 6 5 5 5 3 5 4 3 2 2 4 4 4 6 8 6 6 6 5 7 7 7 6 5 11 17 15 15 15 14 15 14 13 12 12 12 12 11 11 11 12
9 8 8 7 6 6 5 6 3 6 3 2 3 5 3 4 6 7 6 6 7 5 6 7 7 6 5 7 12 18 16 15 14 14 13 13 13 13 13 12 12 12 12
10 10 10 9 7 7 7 4 5 4 6 1 3 3 4 2 3 6 6 6 6 6 6 7 8 7 7 7 5 11 14 12 12 13 12 12 13 13 13 13 13 13 13
11 10 10 9 9 8 6 6 6 6 4 4 1 4 3 4 4 2 7 5 6 7 7 6 7 8 7 7 7 4 11 10 10 11 12 12 13 14 14 14 14 13 13
10 12 11 10 10 8 8 8 6 6 4 6 3 5 2 3 3 6 2 6 6 4 3 7 7 6 8 6 5 6 11 10 11 11 12 13 13 14 15 15 14 14 14
10 13 12 10 10 9 9 8 9 8 8 5 5 4 6 4 4 4 4 4 4 2 1 3 5 5 5 6 6 9 8 9 10 9 9 10 12 13 15 15 15 15 15
9 10 11 11 10 11 9 6 7 9 7 8 6 8 6 6 6 6 6 6 4 2 3 4 3 3 4 4 5 6 11 9 9 9 9 10 12 12 13 14 14 15 16
7 9 9 10 12 12 10 12 7 7 12 9 10 8 8 7 6 6 7 7 4 7 6 8 3 5 2 3 8 6 7 10 6 7 8 8 10 11 12 12 11 12 13
10 10 9 9 11 13 12 11 8 11 10 8 10 11 9 9 7 7 6 7 6 8 8 5 4 5 3 4 5 6 2 11 8 8 8 9 9 10 11 11 12 12 12
12 12 12 12 13 13 13 12 11 12 10 10 11 12 10 9 8 7 8 8 7 8 8 9 3 1 2 4 8 6 5 6 13 10 8 7 8 8 10 11 10 11 13
13 13 13 13 14 14 13 11 13 12 11 13 14 12 12 11 9 8 8 8 8 8 9 9 8 4 4 7 7 6 7 8 5 12 8 7 8 8 9 10 10 11 12
13 14 13 14 14 14 13 14 16 13 13 13 16 11 9 10 11 8 9 9 10 7 8 9 8 9 6 8 7 8 8 8 6 10 10 7 7 7 7 7 8 9 10
13 13 14 15 15 15 16 16 15 15 13 15 16 16 12 10 10 11 11 10 9 9 9 10 10 7 7 6 7 9 8 8 7 12 11 11 10 8 7 4 5 6 7
12 12 13 15 15 16 16 17 16 17 16 17 14 15 16 15 14 13 13 11 9 8 9 8 11 7 9 9 7 8 7 8 8 7 2 1 6 8 10 7 5 2 6
14 16 13 14 12 14 14 18 18 18 18 18 17 16 15 16 19 15 11 13 10 10 9 9 11 10 10 7 7 9 9 7 6 6 7 5 5 6 5 11 5 6 4
14 13 13 15 14 11 15 14 17 16 17 17 17 17 17 15 16 17 16 11 12 14 12 9 11 8 9 8 8 8 7 5 6 3 3 7 6 6 7 7 9 5 5
13 15 15 15 17 15 14 14 17 18 16 16 17 16 15 13 17 17 15 14 14 11 13 10 12 10 9 9 7 8 9 7 7 7 3 8 8 8 4 2 10 5 3
11 12 15 16 15 15 14 16 17 19 17 16 15 17 18 16 14 16 15 16 18 17 17 14 16 15 14 11 10 9 8 7 7 10 6 8 7 7 5 3 14 10 4
11 11 12 16 16 16 13 16 14 18 18 18 15 16 15 16 13 14 15 16 16 14 14 16 15 9 8 5 6 8 9 7 10 8 5 8 8 7 6 7 6 14 14
12 10 12 14 16 18 15 16 17 15 18 16 14 15 14 15 12 15 16 15 15 14 14 12 14 12 13 11 9 12 10 10 11 11 8 9 8 4 5 4 3 5 9
Wind_Direction
210 223 130 153 236 190 252 188 239 248 242 222 242 222 238 242 234 251 257 165 200 208 208 211 217 222 224 223 226 227 229 232 234 240 240 240 237 239 249 240 244 246 247
204 272 238 232 188 213 269 248 248 4 290 259 197 260 215 231 220 243 237 173 193 215 217 218 223 221 225 224 224 226 234 240 243 246 248 245 247 245 243 245 249 252 250
192 282 279 283 321 343 227 288 281 287 280 224 217 217 226 238 244 226 238 245 173 211 227 230 227 217 221 223 222 225 225 230 237 239 242 246 246 244 244 245 246 248 252
235 244 254 286 24 293 258 182 223 298 257 245 228 204 198 210 213 229 240 221 224 206 196 220 216 217 220 224 228 232 230 234 237 238 234 237 241 240 241 244 245 246 248
230 252 267 278 308 305 261 300 310 293 224 341 222 212 209 218 201 208 220 220 205 248 196 173 202 214 222 227 228 229 232 233 234 234 234 231 230 230 233 239 243 242 241
232 241 249 282 283 287 264 326 103 308 299 309 311 268 250 206 224 216 205 209 206 216 224 197 184 209 214 228 231 227 228 232 236 234 233 230 225 226 230 234 239 242 241
233 228 253 246 244 258 305 287 280 228 289 274 288 198 185 215 195 207 211 213 203 222 216 192 231 231 184 210 224 230 228 228 228 228 228 227 226 227 228 230 231 237 242
230 233 244 257 264 271 229 260 273 305 255 82 313 249 200 169 217 210 206 220 211 208 210 219 217 220 259 206 197 212 222 227 228 227 223 220 223 226 227 228 228 232 235
229 229 245 252 265 257 252 227 232 265 298 289 352 303 350 275 175 169 194 208 196 216 214 212 213 219 227 246 166 188 204 216 227 233 229 220 222 224 227 228 227 227 229
232 231 229 234 238 259 257 249 231 275 254 277 236 199 312 323 328 131 170 183 208 213 213 220 212 205 218 225 204 337 179 207 222 233 233 229 224 222 227 231 230 229 227
237 232 229 231 233 239 240 264 280 237 237 280 230 256 181 247 210 296 305 167 194 197 246 225 229 217 193 239 207 198 186 208 218 225 232 234 235 229 231 234 233 232 234
230 222 237 233 240 244 244 250 251 252 261 273 285 281 274 228 254 249 253 302 298 175 212 215 230 231 220 208 234 118 178 216 226 231 238 245 242 245 241 239 236 234 237
234 227 216 238 231 226 248 245 266 271 234 257 240 272 261 273 276 287 295 266 248 290 273 232 191 242 250 234 224 197 176 209 224 235 235 239 241 239 244 247 243 237 235
246 242 240 226 248 257 242 236 216 223 248 231 244 256 283 272 265 260 270 289 302 266 220 251 197 238 221 225 84 163 207 183 197 237 235 238 239 240 241 242 244 247 243
248 255 252 240 242 251 244 240 238 240 233 232 244 235 250 261 251 255 253 257 237 277 276 147 252 152 248 183 114 236 236 157 198 227 233 232 226 230 238 238 233 235 239
239 240 232 231 242 240 247 244 230 233 234 238 236 246 242 252 244 244 254 252 243 264 274 277 228 208 298 256 153 256 260 189 200 207 221 230 230 230 234 240 244 244 241
239 245 248 238 224 235 237 239 245 249 226 231 239 255 234 236 263 266 240 258 252 249 247 250 271 256 251 257 278 261 261 259 225 180 186 217 226 229 235 241 246 249 251
231 239 242 246 242 232 232 227 232 236 227 228 228 232 236 232 234 250 263 242 259 272 277 267 270 278 215 253 252 266 269 267 278 158 162 191 218 230 233 232 238 245 251
239 236 240 240 244 237 231 233 230 229 226 231 231 218 211 218 229 234 231 257 236 228 240 250 270 254 259 257 236 231 255 259 262 150 187 200 205 205 208 246 277 277 283
261 248 244 243 241 241 235 230 226 231 224 226 225 228 230 224 224 226 228 226 241 254 248 261 263 260 257 241 246 270 256 229 239 262 307 176 177 193 230 211 238 61 351
276 282 262 256 251 248 241 231 231 230 229 230 230 229 226 222 217 224 224 218 223 223 232 231 252 248 242 235 238 252 253 268 278 246 267 268 267 261 259 210 176 115 358
266 257 262 260 251 244 255 230 234 228 233 235 232 229 229 206 216 214 214 235 225 224 233 239 257 247 271 251 235 275 293 310 290 321 258 274 279 283 298 289 90 69 325
263 264 263 260 256 247 234 230 219 233 233 233 238 238 229 226 210 219 210 219 232 232 236 235 248 272 275 246 259 262 253 255 262 304 218 280 284 280 278 215 132 144 312
272 269 262 261 262 253 234 214 218 231 235 232 229 234 232 235 217 210 218 212 222 228 228 232 232 241 252 258 255 257 266 263 259 240 207 255 269 275 280 257 163 155 210
287 282 272 271 261 258 231 216 205 231 233 233 226 231 231 232 219 190 219 218 223 228 204 224 238 251 261 220 256 242 232 248 267 270 174 241 274 279 282 262 157 170 195
270 272 286 274 263 264 246 206 199 229 229 229 227 228 215 244 211 182 211 224 224 229 231 222 220 235 245 238 210 236 248 246 257 261 217 227 248 258 272 200 253 207 216